www.pogodaiklimat.ru

Погода и климат >> Архив погоды >> Норвегия >> Хойдалсмо


ПОГОДА в Хойдалсмо

  • Прогноз погоды в Хойдалсмо
  • Монитор погоды в Хойдалсмо

АРХИВ ПОГОДЫ в Хойдалсмо

Время (UTC), дата Ветер
(напр.,м/с)
 
Видим.   Явления Облачность Т
(С)
Тd
(С)
f
(%)
Тe
(С)
Тes
(С)
Комфортность P
(гПа)
Po
(гПа)
Тmin
(С)
Tmax
(С)
R
(мм)
R24
(мм)
S
(см)
22 8.06 ЮВ 3
{5}
н/о н/о +9.0 +8.2 95 +6 +6 1009.0 943.6 0.1
23 8.06 ЮВ 2
{7}
н/о н/о +8.7 +7.9 95 +7 +7 1009.0 943.4 0.4
00 9.06 В 3
{7}
н/о н/о +8.8 +8.0 95 +6 +6 1008.6 943.1 0.9
01 9.06 В 3
{7}
н/о н/о +8.8 +8.2 96 +6 +6 1008.5 943.0 0.1
02 9.06 В 2
{6}
н/о н/о +8.8 +7.9 94 +7 +7 1008.6 943.1 0.4
03 9.06 В 2
{6}
н/о н/о +8.8 +7.8 93 +7 +7 1008.6 943.1
04 9.06 В 2
{4}
н/о н/о +8.8 +7.9 94 +7 +7 1008.8 943.3
05 9.06 Ю 2
{4}
н/о н/о +8.8 +8.2 96 +7 +7 1009.3 943.7 0.1
06 9.06 В 2
{7}
н/о н/о +9.3 +8.2 93 +7 +7 1009.3 943.9 +8.6 +9.9 2
07 9.06 В 2
{4}
н/о н/о +9.5 +8.3 92 +8 +8 1009.8 944.4
08 9.06 ЮВ 3
{5}
н/о н/о +10.2 +8.1 87 +8 +8 1010.2 944.9
09 9.06 ЮВ 3
{6}
н/о н/о +10.5 +8.1 85 +8 +8 1010.7 945.4
10 9.06 ЮВ 3
{7}
н/о н/о +11.4 +8.0 80 +10 +10 1010.9 945.9
11 9.06 ЮВ 4
{7}
н/о н/о +11.6 +8.0 79 +9 +9 1011.1 946.1
12 9.06 Ю 1
{7}
н/о н/о +12.6 +9.5 81 +13 +13 1011.0 946.2 1
13 9.06 З 2
{5}
н/о н/о +12.5 +8.4 76 +12 +12 1011.5 946.7 1
14 9.06 З 1
{7}
н/о н/о +12.5 +7.1 70 +13 +13 1012.5 947.6 0.6
15 9.06 ЮЗ 2
{6}
н/о н/о +11.9 +6.1 68 +11 +11 1013.0 948.0
16 9.06 ЮЗ 2
{7}
н/о н/о +11.9 +6.1 68 +11 +11 1013.7 948.6
17 9.06 ЮЗ 3
{8}
н/о н/о +10.4 +4.7 68 +9 +9 1015.0 949.5
18 9.06 Ю 2
{8}
н/о н/о +9.7 +4.1 68 +8 +8 1015.9 950.2 +9.3 +12.7 3
19 9.06 Ю 2
{7}
н/о н/о +9.4 +3.6 67 +8 +8 1016.2 950.3
20 9.06 ЮЗ 2
{6}
н/о н/о +8.9 +3.1 67 +7 +7 1016.8 950.8
21 9.06 ЮЗ 1
{6}
н/о н/о +7.9 +3.0 71 +7 +7 1017.5 951.2
22 9.06 ЮЗ 2
{6}
н/о н/о +7.7 +2.2 68 +6 +6 1017.9 951.5
23 9.06 ЮЗ 1
{7}
н/о н/о +7.1 +1.9 69 +6 +6 1018.1 951.6
00 10.06 СЗ 1
{7}
н/о н/о +3.6 +2.2 91 +2 +2 1019.3 951.8
01 10.06 С 1
{3}
н/о н/о +2.6 +1.7 94 +1 +1 1019.7 951.9
02 10.06 СЗ 1
{3}
н/о н/о +2.9 +2.1 94 +1 +1 1019.8 952.1
03 10.06 СЗ 1
{3}
н/о н/о +4.2 +3.0 92 +3 +3 1019.5 952.1
04 10.06 В 1
{2}
н/о н/о +5.8 +3.0 82 +5 +5 1019.3 952.4
05 10.06 С 1
{2}
н/о н/о +7.6 +4.5 81 +7 +7 1019.2 952.7
06 10.06 СЗ 2
{5}
н/о н/о +9.2 +3.3 67 +8 +8 1018.8 952.7 +2.4 +9.7
07 10.06 З 2
{5}
н/о н/о +9.5 +2.3 61 +8 +8 1019.0 953.0
08 10.06 СЗ 3
{6}
н/о н/о +9.3 +2.8 64 +7 +7 1019.6 953.5
09 10.06 З 1
{4}
н/о н/о +11.6 +1.7 51 +12 +12 1019.0 953.5
10 10.06 З 1
{5}
н/о н/о +12.1 +1.6 49 +12 +12 1018.8 953.5
11 10.06 СЗ 2
{4}
н/о н/о +11.8 +2.3 52 +11 +11 1019.0 953.5
12 10.06 СЗ 2
{6}
н/о н/о +12.9 +2.5 49 +12 +12 1018.8 953.6
13 10.06 СВ 2
{6}
н/о н/о +13.6 +2.2 46 +13 +13 1018.4 953.4
14 10.06 СЗ 2
{6}
н/о н/о +14.2 +2.4 45 +14 +14 1017.9 953.1
15 10.06 СВ 1
{5}
н/о н/о +14.5 +1.1 40 +15 +15 1017.7 953.0
16 10.06 СЗ 2
{3}
н/о н/о +13.9 +0.7 40 +14 +14 1017.8 953.0
17 10.06 ЮЗ 1
{3}
н/о н/о +13.7 +1.9 45 +14 +14 1017.9 953.0
18 10.06 Ю 1
{6}
н/о н/о +14.3 +2.1 44 +15 +15 1017.8 953.0 +9.1 +15.1
19 10.06 З 1
{1}
н/о н/о +13.2 +5.5 60 +14 +14 1018.2 953.1
20 10.06 СЗ 1
{2}
н/о н/о +7.9 +4.8 81 +7 +7 1019.9 953.5
21 10.06 С 1
{2}
н/о н/о +6.0 +3.6 85 +5 +5 1020.9 954.0
22 10.06 СЗ 1
{3}
н/о н/о +4.9 +3.1 88 +4 +4 1021.7 954.4
23 10.06 СЗ 1
{3}
н/о н/о +4.8 +3.0 88 +3 +3 1021.7 954.4
00 11.06 С 2
{3}
н/о н/о +4.1 +2.5 89 +1 +1 1021.8 954.3
01 11.06 С 1
{4}
н/о н/о +3.1 +1.9 92 +1 +1 1022.0 954.3
02 11.06
{3}
н/о н/о +3.4 +1.9 90 1021.9 954.2
03 11.06 СЗ 1
{3}
н/о н/о +3.5 +1.8 89 +2 +2 1022.5 954.8
04 11.06 СЗ 1
{3}
н/о н/о +4.0 +2.1 87 +3 +3 1022.3 954.8
05 11.06 С 2
{4}
н/о н/о +5.9 +3.0 82 +4 +4 1021.7 954.6
06 11.06 В 1
{4}
н/о н/о +10.1 +4.9 70 +10 +10 1020.6 954.7 +3.0 +14.5 13
07 11.06 СВ 1
{2}
н/о н/о +14.1 +4.4 52 +15 +15 1019.6 954.6
08 11.06 Ю 3
{5}
н/о н/о +15.1 +4.6 49 +15 +15 1019.6 954.9
09 11.06 ЮВ 4
{8}
н/о н/о +15.6 +4.8 49 +15 +15 1019.8 955.2
10 11.06 В 3
{7}
н/о н/о +16.2 +4.8 47 +16 +16 1019.4 955.0
11 11.06 Ю 3
{6}
н/о н/о +16.6 +5.7 48 +16 +16 1019.2 954.9
12 11.06 ЮВ 4
{8}
н/о н/о +17.1 +3.4 40 +17 +17 1019.2 955.0
13 11.06 Ю 4
{7}
н/о н/о +16.7 +2.3 38 +16 +16 1019.3 955.0
14 11.06 ЮВ 3
{8}
н/о н/о +16.2 +3.7 43 +16 +16 1019.4 954.9
15 11.06 В 2
{6}
н/о н/о +15.8 +3.5 44 +16 +16 1019.7 955.1
16 11.06 СВ 1
{4}
н/о н/о +15.4 +3.8 46 +16 +16 1019.8 955.1
17 11.06 В 1
{6}
н/о н/о +14.8 +4.6 50 +15 +15 1019.9 955.1
18 11.06 ЮВ 2
{8}
н/о н/о +12.5 +7.9 74 +12 +12 1021.1 955.6 +10.2 +17.4 0.1
19 11.06 Ю 1
{3}
н/о н/о +10.8 +9.6 92 +10 +10 1021.7 955.8 0.3
20 11.06 штиль 0
{2}
н/о н/о +10.0 +9.5 97 +9 +9 1022.3 956.3 1
21 11.06 В 1
{2}
н/о н/о +10.1 +9.4 95 +10 +10 1022.7 956.6 2
22 11.06 Ю 1
{3}
н/о н/о +9.6 +8.5 93 +9 +9 1023.0 956.7 3
23 11.06 С 1
{3}
н/о н/о +9.2 +8.7 97 +8 +8 1023.4 957.0 2
00 12.06 С 1
{3}
н/о н/о +8.9 +8.3 96 +8 +8 1023.1 956.7 2
01 12.06 З 1
{3}
н/о н/о +8.8 +8.3 97 +8 +8 1022.9 956.5
02 12.06 В 1
{3}
н/о н/о +8.6 +7.9 95 +8 +8 1023.6 957.1 1
03 12.06 ЮВ 2
{7}
н/о н/о +8.3 +6.8 90 +6 +6 1023.6 957.1 1
04 12.06 В 1
{4}
н/о н/о +8.2 +6.3 88 +7 +7 1023.5 956.9
05 12.06 С 1
{4}
н/о н/о +7.9 +6.7 92 +7 +7 1023.1 956.4
06 12.06 С 2
{7}
н/о н/о +8.7 +6.4 85 +7 +7 1022.8 956.3 +7.9 +12.4 11
07 12.06 С 2
{4}
н/о н/о +8.3 +6.0 85 +6 +6 1022.7 956.2
08 12.06 С 1
{7}
н/о н/о +8.5 +6.1 85 +8 +8 1021.9 955.5
09 12.06 СЗ 1
{4}
н/о н/о +8.7 +6.4 85 +8 +8 1021.7 955.3
10 12.06 С 2
{6}
н/о н/о +8.6 +6.8 88 +7 +7 1021.1 954.8 0.1
11 12.06 С 2
{7}
н/о н/о +9.9 +7.0 82 +8 +8 1020.0 954.0
12 12.06 З 1
{7}
н/о н/о +10.0 +7.0 82 +10 +10 1020.2 954.2
13 12.06 СВ 1
{4}
н/о н/о +9.3 +6.8 84 +9 +9 1020.5 954.3
14 12.06 С 2
{6}
н/о н/о +8.2 +5.9 85 +6 +6 1020.2 953.8 0.4
15 12.06 С 1
{6}
н/о н/о +8.0 +5.6 85 +7 +7 1020.1 953.6
16 12.06 В 1
{4}
н/о н/о +7.3 +5.5 88 +6 +6 1019.7 953.1 1
17 12.06 В 1
{4}
н/о н/о +7.4 +5.7 89 +6 +6 1018.8 952.3 0.7
18 12.06 СВ 1
{6}
н/о н/о +7.5 +6.1 91 +7 +7 1018.1 951.6 +7.3 +10.5 3
19 12.06 СВ 2
{7}
н/о н/о +7.0 +5.4 90 +5 +5 1017.6 951.1 0.2
20 12.06 С 2
{5}
н/о н/о +6.9 +5.5 91 +5 +5 1017.3 950.8
21 12.06 С 1
{3}
н/о н/о +6.7 +5.8 94 +6 +6 1016.8 950.3 0.2
22 12.06 СВ 1
{3}
н/о н/о +6.7 +5.6 93 +6 +6 1015.9 949.4 0.2
23 12.06 З 1
{4}
н/о н/о +6.8 +5.6 92 +6 +6 1014.6 948.3 0.1
00 13.06 Ю 1
{7}
н/о н/о +6.7 +6.1 96 +6 +6 1014.0 947.6 0.4
01 13.06 В 1
{3}
н/о н/о +6.6 +5.8 95 +5 +5 1011.5 945.3 6
02 13.06 З 1
{4}
н/о н/о +6.8 +5.9 94 +6 +6 1010.9 944.8 1
03 13.06 С 1
{2}
н/о н/о +6.6 +6.1 97 +5 +5 1010.2 944.0 0.1
04 13.06 С 1
{3}
н/о н/о +6.9 +6.4 97 +6 +6 1009.0 943.1 0.2
05 13.06 Ю 1
{4}
н/о н/о +7.2 +6.7 97 +6 +6 1009.9 943.9 0.6
06 13.06 СЗ 1
{4}
н/о н/о +7.4 +7.0 97 +6 +6 1009.8 943.9 +6.5 +7.4 9
07 13.06 З 1
{1}
н/о н/о +7.7 +6.9 95 +7 +7 1009.1 943.3 0.3
08 13.06 З 1
{2}
н/о н/о +8.1 +7.4 95 +7 +7 1009.6 943.9 0.3
09 13.06 С 1
{2}
н/о н/о +8.6 +7.7 94 +8 +8 1009.6 944.0 0.2
10 13.06 Ю 1
{2}
н/о н/о +8.9 +7.7 92 +8 +8 1010.0 944.4 0.3
11 13.06 Ю 2
{3}
н/о н/о +9.7 +9.1 96 +8 +8 1009.9 944.6 0.2
12 13.06 ЮВ 2
{4}
н/о н/о +10.1 +9.2 94 +8 +8 1010.4 945.1 0.1
13 13.06 Ю 3
{6}
н/о н/о +10.0 +9.2 95 +8 +8 1010.8 945.5
14 13.06 ЮВ 3
{5}
н/о н/о +10.6 +9.7 94 +8 +8 1011.1 945.8
15 13.06 В 2
{6}
н/о н/о +11.3 +9.7 90 +10 +10 1011.3 946.2
16 13.06 ЮВ 3
{6}
н/о н/о +11.6 +9.6 88 +10 +10 1011.5 946.5
17 13.06 ЮВ 3
{6}
н/о н/о +12.1 +9.3 83 +10 +10 1011.8 946.9
18 13.06 ЮВ 2
{6}
н/о н/о +12.5 +9.4 81 +12 +12 1012.4 947.5 +7.4 +13.0
19 13.06 ЮВ 3
{7}
н/о н/о +11.4 +9.7 89 +10 +10 1013.2 948.0
20 13.06 ЮВ 3
{7}
н/о н/о +11.0 +9.2 89 +9 +9 1014.0 948.7
21 13.06 ЮВ 3
{6}
н/о н/о +10.5 +9.0 90 +8 +8 1015.0 949.5
22 13.06 ЮВ 3
{6}
н/о н/о +9.9 +8.8 93 +8 +8 1015.4 949.8
23 13.06 В 2
{5}
н/о н/о +9.4 +8.5 94 +8 +8 1015.8 950.0
00 14.06 ЮВ 1
{7}
н/о н/о +9.5 +8.5 93 +9 +9 1016.0 950.2
01 14.06 ЮВ 1
{3}
н/о н/о +9.1 +8.0 93 +8 +8 1016.4 950.5
02 14.06 В 1
{3}
н/о н/о +9.3 +8.1 92 +9 +9 1016.7 950.8
03 14.06 Ю 1
{2}
н/о н/о +9.1 +8.2 94 +8 +8 1016.4 950.5
04 14.06 ЮЗ 1
{2}
н/о н/о +9.8 +8.3 90 +9 +9 1016.3 950.5
05 14.06 ЮЗ 1
{4}
н/о н/о +10.0 +8.5 90 +9 +9 1016.7 950.9
06 14.06 С 1
{4}
н/о н/о +10.7 +8.8 88 +10 +10 1016.2 950.7 +8.7 +12.4 28
07 14.06 В 1
{4}
н/о н/о +11.3 +9.2 87 +11 +11 1016.2 950.8 0.1
08 14.06 ЮВ 3
{5}
н/о н/о +10.9 +9.2 89 +9 +9 1016.8 951.3
09 14.06 ЮВ 2
{6}
н/о н/о +11.6 +9.7 88 +10 +10 1016.9 951.5
10 14.06 ЮВ 3
{6}
н/о н/о +11.8 +10.1 89 +10 +10 1017.3 952.0
11 14.06 ЮВ 5
{8}
н/о н/о +13.7 +10.0 78 +12 +12 1017.1 952.2
12 14.06 ЮВ 4
{9}
н/о н/о +13.1 +9.5 79 +11 +11 1017.3 952.2
13 14.06 ЮВ 2
{8}
н/о н/о +14.3 +10.1 76 +14 +14 1016.9 952.2
14 14.06 ЮВ 5
{8}
н/о н/о +13.6 +10.0 79 +12 +12 1017.2 952.3
15 14.06 ЮВ 2
{8}
н/о н/о +12.4 +10.5 88 +11 +11 1017.9 952.6 0.2
16 14.06 В 3
{5}
н/о н/о +13.4 +10.3 81 +12 +12 1017.4 952.4
17 14.06 В 2
{4}
н/о н/о +13.6 +10.1 79 +13 +13 1017.1 952.2
18 14.06 ЮВ 2
{8}
н/о н/о +13.6 +10.2 80 +13 +13 1017.6 952.7 +10.7 +15.1
19 14.06 ЮВ 1
{4}
н/о н/о +13.3 +8.5 73 +14 +14 1018.0 952.9
20 14.06 ЮВ 1
{3}
н/о н/о +12.4 +10.0 85 +12 +12 1018.4 953.1
21 14.06 С 1
{2}
н/о н/о +8.4 +7.5 94 +8 +8 1019.9 953.5
22 14.06 С 2
{2}
н/о н/о +6.7 +6.3 97 +4 +4 1020.7 953.9 0.1
23 14.06 штиль 0
{2}
н/о н/о +5.6 +5.3 98 +4 +4 1021.3 954.2
00 15.06 З 1
{4}
н/о н/о +5.3 +5.1 99 +4 +4 1021.4 954.2
01 15.06 З 1
{3}
н/о н/о +5.3 +5.2 99 +4 +4 1021.4 954.2
02 15.06 штиль 0
{3}
н/о н/о +5.9 +5.8 99 +5 +5 1021.1 954.1
03 15.06 СЗ 1
{2}
н/о н/о +6.0 +5.8 99 +5 +5 1020.7 953.8
04 15.06 штиль 0
{3}
н/о н/о +5.7 +5.5 99 +5 +5 1020.7 953.7
05 15.06 В 1
{1}
н/о н/о +6.3 +6.2 99 +5 +5 1020.8 953.9
06 15.06 СВ 1
{3}
н/о н/о +10.9 +8.9 87 +11 +11 1019.2 953.5 +4.8 +13.8 0.1 25
07 15.06 ЮВ 2
{4}
н/о н/о +14.5 +8.2 66 +14 +14 1018.1 953.3
08 15.06 В 2
{5}
н/о н/о +16.4 +8.3 59 +17 +17 1017.5 953.2
09 15.06 Ю 4
{6}
н/о н/о +16.8 +9.0 60 +16 +16 1017.0 952.8
10 15.06 Ю 4
{7}
н/о н/о +17.8 +8.8 56 +18 +18 1016.8 952.9
11 15.06 Ю 3
{7}
н/о н/о +18.7 +9.8 56 +19 +19 1015.9 952.3
12 15.06 Ю 3
{7}
н/о н/о +20.3 +9.9 51 +22 +22 комфорт 1014.6 951.4
13 15.06 Ю 5
{8}
н/о н/о +20.1 +10.0 52 +21 +21 комфорт 1014.5 951.3
14 15.06 Ю 4
{8}
н/о н/о +19.6 +10.3 55 +21 +21 комфорт 1014.2 950.9
15 15.06 ЮВ 3
{7}
н/о н/о +19.7 +10.5 55 +21 +21 комфорт 1013.6 950.4
16 15.06 ЮВ 4
{7}
н/о н/о +18.5 +9.8 57 +19 +19 1013.6 950.1
17 15.06 ЮВ 3
{7}
н/о н/о +15.9 +11.3 74 +15 +15 1014.9 950.6 0.1
18 15.06 штиль 0
{8}
н/о н/о +13.9 +12.9 94 +13 +13 1015.0 950.3 +10.9 +20.8 0.2
19 15.06 штиль 0
{1}
н/о н/о +13.9 +12.7 92 +13 +13 1014.8 950.1
20 15.06 СЗ 1
{1}
н/о н/о +13.2 +12.4 95 +13 +13 1014.6 949.7
21 15.06 штиль 0
{1}
н/о н/о +12.7 +12.3 97 +12 +12 1014.4 949.5

 

Местоположение метеостанции Хойдалсмо (Норвегия): широта 59.50 долгота 8.20 высота над уровнем моря 560 м.

В архиве по умолчанию представлена погода в Хойдалсмо за последнюю неделю. Архивные данные за месяц целиком и за предыдущие месяцы, начиная с января 2011 года, Вы можете получить, выбрав интересующий диапазон дат из раскрывающегося списка и нажав кнопку "Ввод!".


*Определитесь, кто Вы:
робот инопланетянин человек

Внимание! Время в таблицах - всемирное. Для получения местного времени необходимо прибавить поправку, которая равна 1 ч.

Смотрите также архив погоды в соседних городах и на ближайших метеорологических станциях:

Погода в Мосстранде (Норвегия) (37 км)
Погода на Гаустатоппене (Норвегия) (47 км)
Погода в Ховдене (Норвегия) (47 км)
Погода в Валле (Норвегия) (51 км)
Погода в Твейтсунде (Норвегия) (55 км)
Погода в Вагсли (Норвегия) (55 км)
Погода во Гварве (Норвегия) (59 км)
Погода в Хаукелисетере (Норвегия) (66 км)
Погода в Бляшу (Норвегия) (77 км)
Погода в Веггли (Норвегия) (81 км)

Пояснения к столбцам:

Ветер - указаны скорость ветра в м/с - средняя за 10 мин, порывы в срок и между сроками (в фигурных скобках) и направление, откуда дует ветер: С - северный, СВ - северо-восточный, В - восточный, ЮВ - юго-восточный, Ю - южный, ЮЗ - юго-западный, З - западный, СЗ - северо-западный.
Видимость - горизонтальная дальность видимости в метрах или километрах. При видимости от 1 до 10 км при отсутствии осадков обычно наблюдается дымка, при ухудшении видимости до 1 км и менее - туман. В сухую погоду видимость может ухудшаться дымом, пылью или мглою.
Явления - указаны атмосферные явления, наблюдавшиеся в срок или в последний час перед сроком; фигурными скобками обозначены явления, наблюдавшиеся между сроками (за 1-3 часа до срока); квадратными скобками обозначены град или гололедные отложения с указанием их диаметра в мм.
Облачность - указаны через наклонную черту общая и нижняя облачность в баллах и высота нижней границы облаков в метрах; квадратными скобками обозначены формы облаков: Ci - перистые, Cs - перисто-слоистые, Cc - перисто-кучевые, Ac - высококучевые, As - высокослоистые, Sc - слоисто-кучевые, Ns - слоисто-дождевые, Cu - кучевые, Cb - кучево-дождевые. Подробнее классификацию облаков см. в Атласе облаков (PDF).
T - Температура воздуха - температура, измеренная на высоте 2 м над землей.
Td - Температура точки росы - температура, при понижении до которой содержащийся в воздухе водяной пар достигнет насыщения.
f - Относительная влажность воздуха - влажноcть воздуха, измеренная на высоте 2 м над землей.
Te - Эффективная температура - температура, которую ощущает одетый по сезону человек в тени. Характеристика душности погоды. При расчете учитывается влияние влажности воздуха и скорости ветра на теплоощущения человека.
Tes - Эффективная температура на солнце - температура, которую ощущает человек, с поправкой на солнечный нагрев. Характеристика знойности погоды. Зависит от высоты солнца над горизонтом, облачности и скорости ветра. Ночью, в пасмурную погоду, а также при ветре 12 м/с и более поправка равна нулю.
P - Атмосферное давление - приведенное к уровню моря атмосферное давление.
Po - Атмосферное давление - измеренное на уровне метеостанции атмосферное давление.
Tmin - Минимальная температура - минимум температуры воздуха на высоте 2 м над землей.
Tmax - Максимальная температура - максимум температуры воздуха на высоте 2 м над землей.
R - Количество осадков - Количество выпавших осадков за период времени, мм. При наведении курсора мыши на число - период времени, за который выпало указанное количество осадков.
R24 - Количество осадков - Количество выпавших осадков за 24 часа, мм.
S - Снежный покров - Высота снежного покрова, см. При наведении курсора мыши на число - состояние снежного покрова и степень покрытия местности в баллах.